JAL120 RJOO-RJTT

Flight info

Callsign JAL120
Flight time N/A
Altitude 27000
Route ASUKA SHTLE Y71 XAC
Aircraft A359/H-SDE2E3GHIJ3J4J5LM1ORWXY/LB1D1

Departure

Time 2026-05-06 06:52
Airport Osaka Itami International Airport (RJOO)

Arrival

Time N/A
Airport Tokyo Haneda International Airport (RJTT)
Time Latitude Longitude Altitude Speed Heading
2026-05-06 06:46 34.78933 135.43895 53 ft 0 kts 135°
2026-05-06 06:47 34.78930 135.43899 51 ft 6 kts 135°
2026-05-06 06:47 34.78865 135.43977 48 ft 16 kts 135°
2026-05-06 06:48 34.78776 135.44083 49 ft 19 kts 135°
2026-05-06 06:48 34.78674 135.44205 48 ft 22 kts 135°
2026-05-06 06:48 34.78580 135.44314 49 ft 16 kts 151°
2026-05-06 06:48 34.78463 135.44334 51 ft 18 kts 180°
2026-05-06 06:49 34.78331 135.44334 52 ft 20 kts 179°
2026-05-06 06:49 34.78189 135.44342 53 ft 21 kts 164°
2026-05-06 06:49 34.78073 135.44460 52 ft 23 kts 134°
2026-05-06 06:49 34.77954 135.44604 49 ft 25 kts 135°
2026-05-06 06:50 34.77864 135.44714 52 ft 13 kts 135°
2026-05-06 06:50 34.77795 135.44797 55 ft 15 kts 135°
2026-05-06 06:50 34.77710 135.44894 49 ft 18 kts 143°
2026-05-06 06:50 34.77589 135.44970 47 ft 21 kts 156°
2026-05-06 06:51 34.77476 135.45010 52 ft 16 kts 193°
2026-05-06 06:51 34.77446 135.44908 49 ft 15 kts 308°
2026-05-06 06:51 34.77457 135.44895 49 ft 0 kts 316°
2026-05-06 06:51 34.77498 135.44846 52 ft 27 kts 316°
2026-05-06 06:52 34.77903 135.44359 48 ft 137 kts 315°
2026-05-06 06:52 34.78759 135.43290 461 ft 199 kts 314°
2026-05-06 06:52 34.79611 135.41808 1444 ft 239 kts 290°
2026-05-06 06:52 34.79659 135.39722 2178 ft 259 kts 251°
2026-05-06 06:53 34.78587 135.37992 3176 ft 261 kts 211°
2026-05-06 06:53 34.76868 135.37513 4387 ft 256 kts 174°
2026-05-06 06:53 34.75287 135.38449 5496 ft 262 kts 138°
2026-05-06 06:53 34.74415 135.40467 6175 ft 286 kts 101°
2026-05-06 06:54 34.74694 135.42897 6947 ft 303 kts 65°
2026-05-06 06:54 34.75886 135.45048 7864 ft 310 kts 53°
2026-05-06 06:54 34.77192 135.47151 8968 ft 313 kts 53°
2026-05-06 06:54 34.78417 135.49186 10035 ft 315 kts 57°